Other Public Products
Issued by NWS Grand Forks, ND

Home | Current Version | Previous Version | Graphics & Text | Print | Product List | Glossary On
Versions: 1 2 3 4 5 6 7 8 9 10 11 12 13 14 15 16 17 18 19 20 21 22 23 24 25 26 27 28 29 30 31 32 33 34 35 36 37 38 39 40 41 42 43 44 45 46 47 48 49 50
000
FPUS83 KFGF 062031
OPUFGF
PRAIRIE TO PINES WEATHER ROUNDUP
NATIONAL WEATHER SERVICE EASTERN NORTH DAKOTA/GRAND FORKS ND
300 PM CDT WED MAY 06 2015

 **SATELLITE DATA USED TO AUGMENT SKY COVER AT AUTOMATED STATIONS**
 *****  WEATHER ACROSS EASTERN NORTH DAKOTA  *****

CITY           SKY/WX    TMP DP  RH WIND       PRES   REMARKS
GRAND FORKS    LGT RAIN  63  61  94 SE15      29.81F FOG
GRAND FORKS AF DRIZZLE   63  61  94 SE15      29.81F
GRAND CITY NWS   N/A     59 N/A N/A SE12        N/A
BUXTON           N/A     62  61  98 CALM        N/A
DEVILS LAKE    CLOUDY    59  54  82 SE9       29.76F
FARGO          LGT RAIN  65  61  87 SE13      29.81F FOG
WAHPETON ARPT  CLOUDY    64  55  72 E15G21    29.77F
$$

 *****  WEATHER ACROSS CENTRAL AND WESTERN NORTH DAKOTA  *****

CITY           SKY/WX    TMP DP  RH WIND       PRES   REMARKS
JAMESTOWN      LGT RAIN  62  60  93 SE16      29.73F
BISMARCK       LGT RAIN  67  61  81 S10       29.67F
MINOT          LGT RAIN  61  59  93 E14       29.67F FOG
MINOT AFB      DRIZZLE   61  61 100 SE17      29.66F FOG
GARRISON         N/A     61  59  93 S6        29.67F
WILLISTON      RAIN      59  57  93 NW10G21   29.69S FOG
DICKINSON      CLOUDY    60  56  86 NE5       29.65F
HETTINGER      CLOUDY    62  55  77 CALM      29.66F
$$

 *****  OTHER OBSERVATIONS NORTHEAST NORTH DAKOTA  *****

CITY           SKY/WX    TMP DP  RH WIND       PRES   REMARKS
WALHALLA       CLOUDY    59  59 100 S16G23    29.81F
LANGDON        CLOUDY    61  61 100 SE22      29.79F FOG
CAVALIER       CLOUDY    61  61 100 SE10      29.81F FOG
GRAFTON        CLOUDY    63  63 100 SE16G22   29.82F FOG
CANDO          MOCLDY    59  59 100 SE15      29.76F FOG
FORT TOTTEN    NOT AVBL
ROLLA          NOT AVBL
RUGBY          NOT AVBL
 ***** THE ABOVE OBSERVATIONS ARE NON NWS ARE NOT QUALITY
        CONTROLLED AND MAY MIS-REPORT RAIN FOR SNOW...
$$

 *****  OTHER OBSERVATIONS SOUTHEAST NORTH DAKOTA *****

CITY           SKY/WX    TMP DP  RH WIND       PRES   REMARKS
COOPERSTOWN    NOT AVBL
VALLEY CITY    LGT RAIN  61  61 100 SE16      29.77F
OAKES          LGT RAIN  61  61 100 E18       29.73F
GWINNER        CLOUDY    63  63 100 E16       29.76F
SHEYENNE NWR     N/A     63  62  95 E14       29.95S
BUFFALO        NOT AVBL
WYNDMERE       NOT AVBL
 ***** THE ABOVE OBSERVATIONS ARE NON NWS ARE NOT QUALITY
       CONTROLLED AND MAY MIS-REPORT RAIN FOR SNOW...
$$

  *****  WEATHER ACROSS NORTHERN MINNESOTA  *****

CITY           SKY/WX    TMP DP  RH WIND       PRES   REMARKS
FLAG ISLAND    CLOUDY    57  52  82 SE3       29.91S
WARROAD        LGT RAIN  66  57  72 E9        29.89F
ROSEAU         CLOUDY    72  55  56 SE13      29.87S
HALLOCK        CLOUDY    66  61  82 S18       29.82F
THF RVR FALLS  CLOUDY    63  59  88 SE12      29.87F
HALSTAD          N/A     64  61  90 SE12        N/A
FOSSTON        DRIZZLE   63  57  82 E6        29.89F
BAUDETTE       CLOUDY    66  55  67 SE14      29.92F
WASKISH        DRIZZLE   66  55  68 SE9       29.93R
CROOKSTON      LGT RAIN  61  61 100 SE15      29.85S
$$
  *****  WEATHER ACROSS CENTRAL AND WEST MINNESOTA  *****

CITY           SKY/WX    TMP DP  RH WIND       PRES   REMARKS
BEMIDJI        DRIZZLE   61  55  79 SE12      29.92S
PARK RAPIDS    CLOUDY    65  54  67 SE10      29.91F
WADENA         CLOUDY    64  55  72 E13G21    29.86F
DETROIT LAKES  CLOUDY    63  55  77 E13G18    29.86F
MOORHEAD       LGT RAIN  63  61  94 E10       29.80F
FERGUS FALLS   CLOUDY    66  57  72 E14       29.78F
ELBOW LAKE     CLOUDY    66  57  73 E22G28    29.78F
MORRIS MN      CLOUDY    72  59  64 E18       29.75F
STAPLES        CLOUDY    66  55  68 E10       29.88F
WHEATON        CLOUDY    66  57  72 E23       29.77F
$$
  *****  WEATHER ELSEWHERE ACROSS MINNESOTA  *****

CITY           SKY/WX    TMP DP  RH WIND       PRES   REMARKS
DULUTH         CLOUDY    58  50  75 E17       30.03F
INTRNTL FALLS  CLOUDY    69  55  60 SE14G21   29.96F
ELY            CLOUDY    64  52  63 SE9       30.02F
CLOQUET        CLOUDY    57  48  72 E10       30.02F
BRAINERD       CLOUDY    65  55  70 SE15      29.93F
HIBBING        CLOUDY    63  51  65 E13       30.00F
ALEXANDRIA     CLOUDY    68  57  68 E18G26    29.84F
SAINT CLOUD    PTSUNNY   71  57  61 E13G22    29.89F
MINNEAPOLIS    PTSUNNY   73  58  59 E21       29.92F
$$

  *****  WEATHER ACROSS SOUTH DAKOTA  *****

CITY           SKY/WX    TMP DP  RH WIND       PRES   REMARKS
SIOUX FALLS    LGT RAIN  67  61  81 S16G23    29.75F
BROOKINGS      CLOUDY    66  61  82 S18G31    29.75F
WATERTOWN      PTSUNNY   66  61  84 SE17G30   29.73F
HURON          CLOUDY    67  62  84 S16G25    29.66F
SISSETON         N/A     64  62  93 SE16      29.75F
ABERDEEN       CLOUDY    65  63  93 SE14      29.69F
MITCHELL       CLOUDY    71  60  68 S22G31    29.68S
PIERRE         CLOUDY    69  58  67 SE17      29.61F
MOBRIDGE       LGT RAIN  67  62  84 SE15      29.61F
RAPID CITY     PTSUNNY   66  53  63 VRB3      29.62F
$$

  *****  SOME WEATHER IN NEARBY STATES *****

CITY           SKY/WX    TMP DP  RH WIND       PRES   REMARKS
GLASGOW MT     CLOUDY    54  41  61 NW21      29.82R
GREAT FALLS MT PTSUNNY   56  26  31 N13       29.93S
CHEYENNE WY    LGT RAIN  56  45  66 N14       29.70F
SCOTTSBLUFF NE CLOUDY    57  54  89 NW9       29.63S
OMAHA NE       CLOUDY    70  61  73 S24G32    29.83S
DES MOINES IA  CLOUDY    77  57  50 S20G31    29.92F
DAVENPORT IA   MOSUNNY   83  54  36 S20G25    30.03F
CHICAGO IL     PTSUNNY   71  56  58 NE12      30.11F
EAU CLAIRE WI  MOSUNNY   75  59  57 SE15G21   30.01F
LA CROSSE WI   PTSUNNY   78  59  51 SE14      30.00F
$$

  *****  SOME NATIONAL WEATHER *****

CITY           SKY/WX    TMP DP  RH WIND       PRES   REMARKS
LA GUARDIA NY  CLOUDY    65  37  35 NE8       30.25F
RALEIGH NC     PTSUNNY   82  55  39 E9        30.16F
ATLANTA GA     MOSUNNY   81  53  37 E9        30.14F
NEW ORLEANS LA PTSUNNY   81  67  62 E17G23    30.04F
OKLAHOMA CITY  CLOUDY    76  67  73 S21G28    29.85F
ALBUQUERQUE NM PTSUNNY   69  40  34 W12G18    29.90F
SALT LAKE CITY LGT RAIN  57  44  62 SE15      29.76R
LOS ANGELES CA PTSUNNY   62  51  67 W9        29.90F
BOISE ID       PTSUNNY   60  26  27 NW14G24   29.83F
SEATTLE WA     PTSUNNY   54  43  66 W7        30.13F
$$

*** WEATHER ACROSS MANITOBA...SASKATCHEWAN AND ONTARIO ***
                ***ONTARIO***

CITY           SKY/WX    TMP DP  RH WIND       PRES   REMARKS
GERALDTON      PTSUNNY   73  25  16 SE16G23   30.11F
THUNDER BAY    CLOUDY    63  28  27 SE13      30.12F
SIOUX LOOKOUT  CLOUDY    72  50  46 S12G21    29.98F
TORONTO        MOSUNNY   72  39  30 SE6       30.22F
BIG TROUT LK   SUNNY     54  27  35 E10G18    30.10F
PICKLE LAKE    MOSUNNY   73  30  20 S15G23    30.00F
DRYDEN         MOSUNNY   66  55  68 S12       29.97F
KENORA         CLOUDY    68  54  60 S10G20    29.93F
$$
                *** MANITOBA***

CITY           SKY/WX    TMP DP  RH WIND       PRES   REMARKS
BRANDON        LGT RAIN  66  59  77 S13G20    29.76F
DAUPHIN        LGT RAIN  70  55  60 S12       29.72F
ISLAND LAKE    MOSUNNY   59  36  41 E16G26    29.92F
PILOT MOUND      N/A     59  57  94 SE14        N/A
THE PAS        LGT RAIN  48  36  61 NE7       29.77R
THOMPSON       CLOUDY    30  23  74 NE18G32   30.07F WCI  18
WINNIPEG       LGT RAIN  66  59  77 S16       29.83S
LYNN LAKE      LGT SNOW  27  25  93 NE13G23   30.09F VSB 1   WCI  16
CHURCHILL      PTSUNNY   19 N/A N/A NW12        N/A  WCI   7
GILLAM         FLURRIES  25  19  80 NE9G21    30.22F WCI  15
$$
                ***SASKATCHEWAN***

CITY           SKY/WX    TMP DP  RH WIND       PRES   REMARKS
ESTEVAN        LGT RAIN  61  57  88 S13       29.70F
KINDERSLEY     PTSUNNY   50  32  50 NW23G36   29.86R
LLOYDMINSTER   LGT RAIN  37  36  93 NW13      29.87R
PRINCE ALBERT  CLOUDY    41  37  87 NE8       29.78R
REGINA         CLOUDY    50  48  93 NW17      29.76R


USA.gov is the U.S. government's official web portal to all federal, state and local government web resources and services.